Location: Unspecified
(0.0000°N, 0.0000°E)
Time: 19:11:38
(UTC+00:00)

NOAA 15 - Visible Passes

Search period start: 24 September 2021 00:00
Search period end: 04 October 2021 00:00
Orbit: 797 x 812 km, 98.7° (Epoch: 24 September)

Date Brightness Start Highest point End Pass type
(mag) Time Alt. Az. Time Alt. Az. Time Alt. Az.
24 Sep 5.0 18:50:44 10° SE 18:55:33 38° ENE 19:00:21 10° N visible
24 Sep 7.4 20:32:41 10° SW 20:35:02 13° WSW 20:37:21 10° WNW visible
25 Sep 5.8 18:26:48 10° ESE 18:30:26 19° ENE 18:34:02 10° NNE visible
25 Sep 6.5 20:05:36 10° SSW 20:09:55 27° WSW 20:14:15 10° NW visible
26 Sep 5.2 19:39:42 10° S 19:44:48 54° WSW 19:49:53 10° NNW visible
27 Sep 4.4 19:14:26 10° SSE 19:19:41 76° ENE 19:24:53 10° N visible
28 Sep 5.0 18:49:45 10° SE 18:54:33 37° ENE 18:59:19 10° N visible
28 Sep 7.4 20:31:32 10° SW 20:34:01 13° WSW 20:36:31 10° WNW visible
29 Sep 5.9 18:25:53 10° ESE 18:29:25 18° ENE 18:32:58 10° NE visible
29 Sep 6.4 20:04:32 10° SSW 20:08:55 27° WSW 20:13:18 10° NW visible
30 Sep 5.2 19:38:41 10° S 19:43:48 55° WSW 19:48:54 10° NNW visible
01 Oct 4.4 19:13:27 10° SSE 19:18:40 73° ENE 19:23:53 10° N visible
02 Oct 5.1 18:48:47 10° SE 18:53:32 36° ENE 18:58:17 10° NNE visible
02 Oct 7.3 20:30:23 10° SW 20:33:01 14° WSW 20:35:38 10° WNW visible
03 Oct 5.9 18:24:58 10° ESE 18:28:25 18° ENE 18:31:53 10° NE visible
03 Oct 6.4 20:03:29 10° SSW 20:07:55 28° WSW 20:12:21 10° NW visible
